Location: Proctor
(47.8934°N, 114.3048°W)
Time: 11:05:08
(UTC+00:00)

Transit 4A - Pass Details

Date: 25 June 2024
Orbit: 870 x 973 km, 66.8° (Epoch: 13 July)

Event Time Altitude Azimuth Distance (km) Brightness Sun altitude
Rises 10:44:45 0° 320° (NW) 3,474 11.0 -7.6°
Reaches altitude 10° 10:48:35 10° 345° (NNW) 2,546 10.7 -7.1°
Maximum altitude 10:51:39 14° 17° (NNE) 2,265 11.0 -6.8°
Drops below altitude 10° 10:54:44 10° 48° (NE) 2,571 12.1 -6.4°
Sets 10:58:37 0° 73° (ENE) 3,532 12.2 -6.0°
